Location: Abraham Lincoln Continuation High School
(33.9711°N, 117.3662°W)
Time: 14:11:03
(UTC+00:00)

In-Cosmos 22 - Pass Details

Date: 21 September 2020
Orbit: 785 x 876 km, 81.2° (Epoch: 29 October)

Event Time Altitude Azimuth Distance (km) Brightness Sun altitude
Rises 03:04:24 0° 356° (N) 3,286 7.5 -16.5°
Reaches altitude 10° 03:06:48 10° 0° (N) 2,359 6.7 -17.0°
Maximum altitude 03:12:02 59° 80° (E) 920 4.1 -18.1°
Enters shadow 03:16:00 18° 156° (SSE) 1,890 5.7 -18.9°
